Regional Weather Roundup
Issued by NWS State College, PA

Home | Current Version | Previous Version | Text Only | Print | Product List | Glossary Off
Versions: 1 2 3 4 5 6 7 8 9 10 11 12 13 14 15 16 17 18 19 20 21 22 23 24 25 26 27 28 29 30 31 32 33 34 35 36 37 38 39 40 41 42 43 44 45 46 47 48 49 50

000
ASUS41 KCTP 221910
RWRCTP

REGIONAL WEATHER ROUNDUP
NATIONAL WEATHER SERVICE STATE COLLEGE PA
200 PM EST WED NOV 22 2017

Note: "fair" indicates few or no clouds below 12,000 feet with no
significant weather and/or obstructions to visibility.

* = STATION THAT DOES NOT REPORT PRECIPITATION /E.G. RAIN...SNOW...ETC/
    THUNDER OR FOG.

PAZ002>004-007>009-013>016-020>023-029>032-222000-
WESTERN PENNSYLVANIA

CITY           SKY/WX    TMP DP  RH WIND       PRES   REMARKS
ERIE           CLOUDY    34  22  61 NW10      30.19S
MEADVILLE      CLOUDY    31  23  72 NW9       30.16S
FRANKLIN*      CLOUDY    31  23  72 NW8       30.16R
NEW CASTLE     CLOUDY    33  23  66 W10       30.20S
BEAVER COUNTY  CLOUDY   N/A N/A N/A NW8       30.19R
BUTLER*        CLOUDY    32  25  75 W7        30.18S
PITTSBURGH INT FLURRIES  34  26  72 NW14      30.18S
PITTSBURGH     CLOUDY    34  23  64 NW12G21   30.16S
INDIANA*       CLOUDY    36  28  75 NW12G18   30.16S
LATROBE        PTSUNNY   36  27  69 NW17      30.16S
WASHINGTON CO* CLOUDY    34  25  69 NW7       30.21S
$$

PAZ004>006-010>012-017>019-024>028-033>037-041-042-045-046-049>053-222000-
CENTRAL PENNSYLVANIA

CITY           SKY/WX    TMP DP  RH WIND       PRES   REMARKS
BRADFORD       CLOUDY    28  24  85 NW12      30.07R
DUBOIS         CLOUDY    31  23  72 NW10      30.10R
CLEARFIELD     CLOUDY    35  24  64 NW13      30.10R
JOHNSTOWN      CLOUDY    31  26  82 NW18      30.05F
ALTOONA        PTSUNNY   39  25  57 NW17G29   30.07S
STATE COLLEGE  CLOUDY    37  23  56 NW16G29   30.09R
WILLIAMSPORT   CLOUDY    43  25  49 W18       30.05R
SELINSGROVE    CLOUDY    43  28  55 NW14G25   30.06R
FT INDIANTOWN  CLOUDY    45  28  52 N10G18    30.02R
CAPITAL CITY   CLOUDY    48  26  42 NW12      30.03R
HARRISBURG     CLOUDY    47  28  47 NW17G26   30.02R
YORK           CLOUDY    46  30  53 NW13G20   30.03R
$$

PAZ038>040-043-044-047-048-054-055-060>062-067>071-222000-
EASTERN PENNSYLVANIA

CITY           SKY/WX    TMP DP  RH WIND       PRES   REMARKS
SCRANTON       CLOUDY    39  28  64 NW9G20    30.02R
MOUNT POCONO   CLOUDY    35  27  72 NW16G29   29.94R
ALLENTOWN      PTSUNNY   46  30  53 NW14G23   29.99R
QUAKERTOWN*    CLOUDY    45  32  61 NW12G18   29.98S
READING        PTSUNNY   48  33  56 NW14      29.99R
LANCASTER      CLOUDY    47  32  56 NW21G31   30.00R
COATESVILLE    CLOUDY    48  32  53 N17G28    29.98R
POTTSTOWN      CLOUDY    47  33  58 N13G23    29.99R
BLUE BELL      PTSUNNY   45  34  65 NW13G20   29.98R
DOYLESTOWN     CLOUDY    47  34  60 NW16G23   29.95R
WILLOW GROVE   NOT AVBL
NORTH PHILA    CLOUDY    52  36  54 N17       29.96R
PHILADELPHIA   MOSUNNY   54  32  43 NW24G32   29.95R
$$




USA.gov is the U.S. government's official web portal to all federal, state and local government web resources and services.